Regional Weather Roundup
Issued by NWS

Home | Current Version | Previous Version | Text Only | Print | Product List | Glossary Off
Versions: 1 2 3 4 5 6 7 8 9 10 11 12 13 14 15 16 17 18 19 20 21 22 23 24 25 26 27 28 29 30 31 32 33 34 35 36 37 38 39 40 41 42 43 44 45 46 47 48 49 50

000
ASUS43 KDMX 200807
RWRIA

WEATHER ROUNDUP FOR IOWA
NATIONAL WEATHER SERVICE DES MOINES IA
300 AM CDT MON APR 20 2015

NOTE: "FAIR" INDICATES FEW OR NO CLOUDS BELOW 12,000 FEET WITH NO
SIGNIFICANT WEATHER AND/OR OBSTRUCTIONS TO VISIBILITY.

* - THESE STATIONS ARE NOT NWS STATIONS...THUS NOT UNDER NWS
QUALITY CONTROL.  THEY ALSO DO NOT REPORT WEATHER SUCH
AS PRECIPITATION OR FOG.

IAZ001>003-012>014-020>022-031>034-043>046-200900-
   NORTHWEST IOWA

CITY           SKY/WX    TMP DP  RH WIND       PRES   REMARKS
CARROLL *      CLEAR     43  39  87 NW20G26   29.65S
CHEROKEE *     PTCLDY    41  36  81 NW14      29.69S
DENISON *      CLEAR     41  39  93 NW14G23   29.68S
LE MARS *      CLEAR     41  36  81 NW15      29.73F
ORANGE CITY *  CLEAR     37  34  87 NW15      29.70F WCI  28
SHELDON *      CLEAR     39  37  93 NW14      29.68S WCI  31
SIOUX CITY     CLEAR     43  33  68 NW20G29   29.74S
SPENCER        PTCLDY    41  36  82 NW14      29.65F
STORM LAKE *   CLEAR     39  36  87 NW21      29.67S WCI  29
$$

IAZ055>058-069>071-079>083-090>094-200900-
   SOUTHWEST IOWA

CITY           SKY/WX    TMP DP  RH WIND       PRES   REMARKS
ATLANTIC *     CLEAR     43  39  87 NW16      29.69S
AUDUBON *      CLEAR     43  37  81 NW13G18   29.68R
CLARINDA *     CLEAR     45  37  76 NW15      29.73S
COUNCIL BLFS * CLEAR     43  39  87 NW20G31   29.73S
CRESTON *      CLEAR     43  39  87 NW18G24   29.66S
HARLAN  *        N/A     43  43 100 NW15G22   29.73S
LAMONI         PTCLDY    45  37  73 NW17      29.64R
RED OAK *      CLEAR     43  37  81 NW14      29.72R
SHENANDOAH *   CLEAR     45  37  76 NW14      29.74S
$$

IAZ047>049-059>061-072>074-084-200900-
   CENTRAL IOWA

CITY           SKY/WX    TMP DP  RH WIND       PRES   REMARKS
AMES           CLOUDY    44  37  76 NW25G38   29.58S
ANKENY *       PTCLDY    45  39  81 NW15G22   29.59R
CHARITON *     MOCLDY    46  39  76 NW26G35   29.59R
DES MOINES     MOCLDY    45  38  76 NW18G26   29.60R
GRINNELL*      CLOUDY    45  41  87 NW24G33   29.52S
KNOXVILLE *    CLOUDY    46  39  76 NW24G35   29.56R
MARSHALLTOWN   CLOUDY    45  40  82 NW26G38   29.52S
PELLA *        CLOUDY    46  46 100 NW24G35   29.56R
PERRY *          N/A     43  39  87 NW15G24   29.63R
$$

IAZ004>006-015-016-023>025-035-036-200900-
   NORTH CENTRAL IOWA

CITY           SKY/WX    TMP DP  RH WIND       PRES   REMARKS
ALGONA *       CLEAR     43  39  87 NW20G28   29.60S
CLARION *      CLEAR     43  41  93 NW28G36   29.57S
ESTHERVILLE    CLOUDY    41  37  86 NW20      29.62F
FORT DODGE *   CLOUDY    43  37  81 NW8G20    29.61S
MASON CITY     CLOUDY    42  36  79 NW28G38   29.54F
FOREST CITY *  CLOUDY    41  36  81 NW20G29   29.55S
IOWA FALLS *   CLOUDY    43  39  87 NW25G33   29.54S
$$

IAZ007>011-017>019-026>030-037>042-050>054-066-200900-
   NORTHEAST IOWA

CITY           SKY/WX    TMP DP  RH WIND       PRES   REMARKS
CEDAR RAPIDS   LGT RAIN  45  44  97 NW25G36   29.42F
CHARLES CITY * LGT RAIN  43  41  93 NW24G35   29.48S
CLINTON *      MOCLDY    48  45  87 W26       29.34R
DECORAH *      RAIN      43  43 100 NW20G31   29.40S
DUBUQUE        CLOUDY    48  46  93 NW23G35   29.32S FOG
MONTICELLO *   RAIN      46  46 100 NW21G33   29.37R
OELWEIN *      MIX PCPN  45  43  93 NW23G33   29.44S
WATERLOO       LGT RAIN  45  42  89 NW18G24   29.46F
$$

IAZ064-065-067-068-078-200900-
   EAST CENTRAL IOWA

CITY           SKY/WX    TMP DP  RH WIND       PRES   REMARKS
DAVENPORT      LGT RAIN  48  44  86 NW24G33   29.35S
IOWA CITY      LGT RAIN  46  44  93 NW23G29   29.45R
MT. PLEASANT * CLOUDY    46  41  81 W22G30    29.48R
MUSCATINE *    CLOUDY    48  45  87 NW26      29.42S
QUAD CITIES    LGT RAIN  49  45  86 W22G31    29.35S
$$

IAZ062-063-075>077-085>089-095>099-200900-
   SOUTHEAST IOWA

CITY           SKY/WX    TMP DP  RH WIND       PRES   REMARKS
BURLINGTON     CLOUDY    48  44  86 NW14G29   29.45R
FAIRFIELD *    MOCLDY    48  41  76 NW22G30   29.49S
FORT MADISON * CLOUDY    46  43  87 W21G30    29.48S
KEOKUK *       CLOUDY    48  43  81 NW17G28   29.49S
OSKALOOSA *    CLOUDY    46  41  81 NW18G24   29.53S
CENTERVILLE *  MOCLDY    46  45  93 W21       29.58S
OTTUMWA        CLOUDY    48  42  80 NW15G24   29.53S
WASHINGTON *   CLOUDY    46  46 100 NW22G29   29.47R
$$

ABBREVIATIONS USED IN REMARKS
   TC - TEMPERATURES IN CELSIUS
  WCI - WIND CHILL INDEX
   HX - HEAT INDEX
  VSB - VISIBILITY
$$




USA.gov is the U.S. government's official web portal to all federal, state and local government web resources and services.